[[{"header":{"parameterUnit":"m.s-1","parameterCategory":1,"la1":30.2991,"la2":30.254,"lo1":-89.0895,"lo2":-89.0444,"dy":0.0017,"dx":0.0017,"nx":28,"ny":28,"refTime":"2023-08-19T21:00:00:Z","depth":0,"parameterNumber":2,"parameterNumberName":"U-component_of_WINDS"},"data":[0,0,0,0,0,0,0,0,0,0,0,0,0,0,0,0,0,0,0,0,0,0,0,0,0,0,0,0,0,0,0,0,0,0,0,0,0,0,0,0,0,0,0,0,0,0,0,0,0,0,0,0,0,0,0,0,0,0,-0.6401,-0.6401,0,-0.6422,-0.6422,-0.6422,-0.6463,-0.6464,-0.6465,-0.6466,-0.6483,-0.6483,-0.6482,0,0,0,0,0,0,0,0,0,0,0,0,0,-0.6392,-0.6392,-0.6401,-0.6401,-0.6401,-0.6422,-0.6422,-0.6422,-0.6463,-0.6464,-0.6465,-0.6466,-0.6483,-0.6483,-0.6482,0,0,0,0,0,0,0,0,0,0,0,0,0,-0.6403,-0.6392,-0.6401,-0.6424,-0.6426,-0.6422,-0.6422,-0.6423,-0.6463,-0.6464,-0.6465,-0.6466,-0.6483,-0.6483,-0.6482,-0.6455,0,0,-0.6481,-0.6481,0,0,0,0,0,0,0,0,-0.6402,-0.6403,-0.642,-0.6422,-0.6425,-0.6441,-0.6426,-0.6433,-0.6463,-0.6449,-0.6466,-0.6467,-0.6468,-0.6469,-0.647,-0.6456,-0.6457,-0.6481,-0.6481,-0.648,-0.648,0,0,0,0,0,0,0,-0.6401,-0.6402,-0.6409,-0.6421,-0.6423,-0.6433,-0.6435,-0.6427,-0.6451,-0.645,-0.6453,-0.6455,-0.6469,-0.647,-0.6471,-0.6457,-0.6481,-0.648,-0.648,-0.648,-0.6423,-0.6422,0,0,0,0,0,0,-0.6398,-0.6402,-0.6408,-0.641,-0.6417,-0.6432,-0.6435,-0.6435,-0.6451,-0.6455,-0.6454,-0.6457,-0.647,-0.6471,-0.6471,-0.6441,-0.648,-0.648,-0.648,-0.6425,-0.6423,-0.6422,0,0,0,0,0,0,-0.6398,-0.6398,-0.6407,-0.6407,-0.6408,-0.6431,-0.643,-0.6435,-0.6436,-0.6455,-0.6459,-0.6451,-0.6471,-0.6472,-0.646,-0.6442,-0.648,-0.6479,-0.6426,-0.6424,-0.6422,-0.638,0,0,0,0,0,0,-0.6397,-0.6398,-0.6388,-0.6406,-0.6408,-0.6396,-0.6429,-0.6434,-0.6435,-0.6439,-0.6453,-0.6456,-0.6472,-0.646,-0.6459,-0.6442,-0.6479,-0.6428,-0.6425,-0.6423,-0.6383,-0.6377,-0.6372,0,0,0,0,0,-0.6397,-0.6374,-0.6387,-0.6388,-0.6397,-0.6395,-0.6396,-0.6417,-0.6434,-0.6424,-0.6436,-0.6455,-0.6445,-0.6458,-0.6458,-0.6441,-0.6429,-0.6426,-0.6423,-0.6386,-0.6378,-0.6372,0,0,0,0,0,0,-0.6351,-0.6377,-0.6392,-0.6375,-0.6383,-0.6402,-0.639,-0.6408,-0.641,-0.6413,-0.6438,-0.644,-0.6425,-0.6432,-0.6446,-0.6416,-0.644,-0.6437,-0.6412,-0.6405,-0.6399,-0.6397,-0.6479,0,0,0,0,0,-0.634,-0.6337,-0.6359,-0.6342,-0.6345,-0.6367,-0.6367,-0.6382,-0.6391,-0.6394,-0.6405,-0.6412,-0.641,-0.6408,-0.6407,-0.6385,-0.6389,-0.6373,-0.6368,-0.6363,-0.636,-0.6349,-0.6342,-0.6413,-0.6413,-0.6413,0,0,-0.6315,-0.6328,-0.6325,-0.6333,-0.6341,-0.6337,-0.6369,-0.6363,-0.636,-0.6392,-0.6382,-0.6391,-0.6399,-0.6382,-0.6375,-0.6387,-0.6341,-0.6359,-0.6356,-0.6355,-0.6345,-0.6339,-0.6333,-0.6411,-0.6411,-0.6411,0,0,-0.6267,-0.6278,-0.6265,-0.6273,-0.6285,-0.63,-0.6297,-0.6315,-0.6322,-0.6313,-0.6337,-0.6334,-0.633,-0.6336,-0.6338,-0.6295,-0.6313,-0.6295,-0.6264,-0.6254,-0.6248,-0.6243,-0.6228,-0.6222,-0.6291,-0.6291,-0.6291,0,-0.6234,-0.623,-0.6255,-0.6248,-0.6251,-0.6283,-0.627,-0.6276,-0.6287,-0.6288,-0.6302,-0.63,-0.6308,-0.6292,-0.6282,-0.6283,-0.628,-0.6292,-0.6247,-0.6243,-0.6239,-0.6224,-0.6218,-0.6289,-0.6289,-0.6289,-0.629,0,-0.6189,-0.6186,-0.6174,-0.6186,-0.6187,-0.6177,-0.62,-0.6199,-0.6215,-0.6229,-0.6219,-0.623,-0.6233,-0.6231,-0.6245,-0.6218,-0.6225,-0.6243,-0.6267,-0.6229,-0.6216,-0.6211,-0.6286,-0.6286,-0.6287,-0.6288,0,0,-0.611,-0.6139,-0.6134,-0.6141,-0.6158,-0.6155,-0.6147,-0.6152,-0.615,-0.6157,-0.615,-0.6148,-0.6165,-0.6168,-0.6184,-0.6175,-0.614,-0.6194,-0.6194,-0.6183,-0.6111,-0.6096,-0.609,-0.6153,-0.6152,-0.6151,-0.611,0,-0.6066,-0.6054,-0.6078,-0.606,-0.6058,-0.6089,-0.6082,-0.6091,-0.6104,-0.6103,-0.6117,-0.6115,-0.6138,-0.614,-0.6133,-0.6146,-0.6126,-0.615,-0.6146,-0.6145,-0.6141,-0.6083,-0.6067,-0.6027,-0.6105,-0.6104,-0.6103,0,-0.6012,-0.6019,-0.6001,-0.6021,-0.6021,-0.6014,-0.6021,-0.602,-0.6032,-0.6042,-0.6046,-0.6066,-0.6059,-0.6084,-0.6074,-0.6089,-0.6089,-0.6096,-0.6095,-0.6094,-0.6121,-0.6079,-0.6015,-0.6009,-0.6096,-0.6096,-0.6097,0,-0.5956,-0.5961,-0.5951,-0.5956,-0.5979,-0.5974,-0.5983,-0.5996,-0.5998,-0.6004,-0.6005,-0.6009,-0.6011,-0.6014,-0.6034,-0.6051,-0.6022,-0.6048,-0.6029,-0.6028,-0.602,-0.602,-0.5953,-0.6022,-0.6022,-0.6022,-0.6022,0,-0.5903,-0.5891,-0.5927,-0.5921,-0.5908,-0.5936,-0.5922,-0.5935,-0.5947,-0.5943,-0.597,-0.5966,-0.5994,-0.5993,-0.6009,-0.5998,-0.5999,-0.6006,-0.601,-0.6003,-0.6002,-0.6002,-0.6005,-0.602,-0.6021,-0.6021,-0.6021,0,-0.5838,-0.5861,-0.5853,-0.5877,-0.5883,-0.5872,-0.5892,-0.5887,-0.5903,-0.5898,-0.5899,-0.5923,-0.5923,-0.5945,-0.5948,-0.5959,-0.5941,-0.5951,-0.5937,-0.594,-0.5919,-0.5921,-0.585,-0.5842,-0.5916,-0.5915,-0.5915,0,-0.5801,-0.5793,-0.5817,-0.5818,-0.5826,-0.5826,-0.5829,-0.5857,-0.5858,-0.5872,-0.5865,-0.5868,-0.5872,-0.5871,-0.5888,-0.5891,-0.59,-0.5875,-0.5901,-0.5894,-0.5899,-0.5899,-0.5898,-0.5869,-0.5868,-0.5868,-0.5867,0,-0.5735,-0.5748,-0.5751,-0.576,-0.5763,-0.577,-0.5779,-0.5777,-0.5808,-0.5808,-0.581,-0.5813,-0.5818,-0.582,-0.5827,-0.5836,-0.5856,-0.586,-0.5855,-0.5847,-0.5839,-0.5842,-0.5922,-0.586,-0.5861,-0.5861,-0.5862,-0.5862,-0.5682,-0.5677,-0.5694,-0.5697,-0.5708,-0.5716,-0.5713,-0.5729,-0.5732,-0.5739,-0.5756,-0.5755,-0.5768,-0.578,-0.5787,-0.5786,-0.5798,-0.5792,-0.579,-0.5788,-0.5784,-0.5841,-0.5787,-0.5788,-0.5788,-0.5788,-0.5788,0,-0.5617,-0.563,-0.5633,-0.5646,-0.5649,-0.567,-0.5682,-0.5682,-0.5682,-0.5693,-0.5697,-0.5699,-0.5702,-0.5721,-0.5726,-0.5721,-0.5731,-0.5722,-0.5721,-0.5723,-0.5772,-0.5776,-0.5714,-0.5714,-0.5714,-0.5714,-0.5714,-0.5714,-0.5583,-0.5575,-0.559,-0.5588,-0.5601,-0.5601,-0.5606,-0.5614,-0.5623,-0.5625,-0.5629,-0.5642,-0.5656,-0.5662,-0.5666,-0.5671,-0.5671,-0.5659,-0.5667,-0.5712,-0.5719,-0.5726,-0.5729,-0.5659,-0.5659,-0.5618,-0.5617,-0.5617]},{"header":{"parameterUnit":"m.s-1","parameterCategory":1,"la1":30.2991,"la2":30.254,"lo1":-89.0895,"lo2":-89.0444,"dy":0.0017,"dx":0.0017,"nx":28,"ny":28,"refTime":"2023-08-19T21:00:00:Z","depth":0,"parameterNumber":3,"parameterNumberName":"V-component_of_WINDS"},"data":[0,0,0,0,0,0,0,0,0,0,0,0,0,0,0,0,0,0,0,0,0,0,0,0,0,0,0,0,0,0,0,0,0,0,0,0,0,0,0,0,0,0,0,0,0,0,0,0,0,0,0,0,0,0,0,0,0,0,3.0761,3.0762,0,3.0841,3.0842,3.0843,3.0833,3.0832,3.083,3.0829,3.0902,3.0905,3.0908,0,0,0,0,0,0,0,0,0,0,0,0,0,3.0591,3.0594,3.0761,3.0762,3.0763,3.0841,3.0842,3.0843,3.0833,3.0831,3.083,3.0828,3.0901,3.0905,3.0909,0,0,0,0,0,0,0,0,0,0,0,0,0,3.0667,3.0595,3.0761,3.0767,3.0769,3.0841,3.0842,3.0843,3.0833,3.0831,3.083,3.0828,3.09,3.0904,3.0909,3.0976,0,0,3.0923,3.0925,0,0,0,0,0,0,0,0,3.0663,3.0673,3.0765,3.0767,3.0769,3.0825,3.0809,3.0888,3.0834,3.0809,3.0829,3.0827,3.0877,3.0884,3.0903,3.098,3.0983,3.0924,3.0927,3.0929,3.093,0,0,0,0,0,0,0,3.0658,3.067,3.0792,3.0767,3.0769,3.0764,3.0773,3.0824,3.0852,3.0811,3.081,3.082,3.0878,3.0898,3.0904,3.0984,3.0924,3.0928,3.0931,3.0933,3.112,3.1122,0,0,0,0,0,0,3.0652,3.0666,3.079,3.0795,3.071,3.0769,3.0778,3.0809,3.0852,3.0857,3.0822,3.082,3.0891,3.0899,3.0907,3.0988,3.0929,3.0933,3.0936,3.1118,3.1121,3.1123,0,0,0,0,0,0,3.0648,3.0663,3.0786,3.073,3.0746,3.0774,3.0808,3.0811,3.0832,3.0861,3.0865,3.0838,3.089,3.09,3.096,3.0991,3.0935,3.0939,3.1115,3.1119,3.1122,3.1152,0,0,0,0,0,0,3.0643,3.0662,3.0689,3.0731,3.0749,3.084,3.081,3.0814,3.0841,3.0839,3.0877,3.0881,3.0889,3.0953,3.0964,3.0996,3.0943,3.1113,3.1117,3.1121,3.1148,3.1156,3.1162,0,0,0,0,0,3.0637,3.0692,3.0691,3.0706,3.0784,3.0842,3.0852,3.0863,3.0844,3.087,3.0889,3.088,3.0986,3.0959,3.0972,3.1006,3.1111,3.1116,3.112,3.1145,3.1154,3.1162,0,0,0,0,0,0,3.065,3.0698,3.0696,3.0767,3.0801,3.084,3.0874,3.0872,3.091,3.0906,3.0915,3.0924,3.0984,3.1001,3.097,3.1073,3.1045,3.1053,3.106,3.1069,3.1076,3.1069,3.0947,0,0,0,0,0,3.0662,3.0708,3.0746,3.0805,3.0822,3.0846,3.0871,3.0877,3.0911,3.0925,3.0947,3.0978,3.1019,3.1045,3.1084,3.1151,3.1159,3.1181,3.1188,3.1194,3.1199,3.1236,3.1246,3.1139,3.1139,3.1139,0,0,3.0685,3.0717,3.0745,3.0808,3.0835,3.088,3.0857,3.0906,3.0938,3.0931,3.0989,3.1007,3.1042,3.1107,3.1136,3.1122,3.1231,3.12,3.1204,3.1207,3.1242,3.1252,3.1262,3.1142,3.1142,3.1141,0,0,3.075,3.078,3.0832,3.0861,3.0903,3.0919,3.0932,3.0972,3.0985,3.1044,3.104,3.1077,3.1147,3.1173,3.1194,3.1272,3.1265,3.1284,3.132,3.1356,3.1364,3.1372,3.1399,3.1408,3.129,3.129,3.1291,0,3.0772,3.0843,3.0858,3.0909,3.0936,3.0935,3.0987,3.1013,3.1064,3.1082,3.1068,3.1156,3.1179,3.1249,3.1269,3.1287,3.13,3.1279,3.1363,3.137,3.1377,3.1403,3.1413,3.1292,3.1292,3.1292,3.1292,0,3.0868,3.0917,3.0954,3.1008,3.104,3.109,3.1111,3.1141,3.1145,3.1161,3.1221,3.125,3.1295,3.1312,3.1315,3.1383,3.1373,3.1361,3.1333,3.1389,3.1414,3.1423,3.1295,3.1295,3.1294,3.1294,0,0,3.0941,3.1005,3.1018,3.1043,3.1091,3.1128,3.1178,3.1225,3.125,3.1286,3.1327,3.1387,3.1377,3.1402,3.1407,3.1439,3.1498,3.1422,3.1423,3.1434,3.1574,3.1582,3.1593,3.1494,3.1496,3.1498,3.157,0,3.101,3.1102,3.1118,3.1198,3.1242,3.1244,3.1287,3.132,3.1337,3.1375,3.1393,3.1436,3.1419,3.1434,3.1466,3.1484,3.1526,3.1479,3.153,3.1532,3.152,3.1606,3.1615,3.1682,3.158,3.1582,3.1583,0,3.1102,3.1145,3.123,3.1273,3.1293,3.1332,3.1377,3.1415,3.1451,3.1462,3.1491,3.1494,3.1544,3.1515,3.1583,3.1551,3.1573,3.1586,3.1588,3.1592,3.1559,3.1611,3.1703,3.1713,3.1598,3.1597,3.1596,0,3.1146,3.1224,3.1285,3.1306,3.1359,3.1386,3.1409,3.1444,3.1472,3.1511,3.1528,3.1571,3.1594,3.1626,3.1639,3.1618,3.1706,3.1679,3.1714,3.1714,3.1731,3.1729,3.1827,3.1747,3.1747,3.1747,3.1747,0,3.122,3.1272,3.1306,3.1343,3.1401,3.1418,3.1474,3.1495,3.1527,3.1567,3.1569,3.1606,3.1622,3.1661,3.1672,3.1726,3.1736,3.1744,3.1746,3.1743,3.1742,3.1756,3.1751,3.175,3.1749,3.1749,3.1748,0,3.1277,3.1303,3.1369,3.1415,3.1428,3.1468,3.1505,3.154,3.1559,3.1609,3.1622,3.1649,3.1695,3.1713,3.1767,3.1774,3.1837,3.1835,3.1825,3.1825,3.1859,3.1855,3.1968,3.1983,3.1895,3.1896,3.1897,0,3.1322,3.1363,3.1414,3.1443,3.1468,3.1513,3.1543,3.1562,3.1592,3.1638,3.1667,3.1714,3.1752,3.1825,3.1848,3.189,3.1889,3.1925,3.1894,3.1891,3.1888,3.1885,3.1888,3.193,3.1931,3.1932,3.1932,0,3.1399,3.1411,3.1455,3.1505,3.1541,3.1579,3.1617,3.1639,3.1663,3.1697,3.1746,3.1776,3.1834,3.1879,3.1923,3.1943,3.1941,3.1943,3.1953,3.1949,3.1942,3.1945,3.1839,3.1939,3.1939,3.1938,3.1938,3.1937,3.1451,3.1487,3.153,3.1579,3.1611,3.1646,3.1682,3.1707,3.1749,3.18,3.1808,3.186,3.1896,3.1955,3.1978,3.2017,3.2007,3.2022,3.2025,3.2028,3.203,3.1937,3.2025,3.2025,3.2025,3.2024,3.2024,0,3.1527,3.1556,3.1602,3.1656,3.1695,3.1694,3.1736,3.1767,3.1814,3.185,3.1889,3.1945,3.199,3.2018,3.2062,3.2088,3.2089,3.2099,3.2097,3.2101,3.2037,3.2024,3.2099,3.2099,3.2099,3.2098,3.2098,3.2098,3.1572,3.1633,3.165,3.1727,3.1754,3.1808,3.1832,3.1864,3.1893,3.1957,3.1995,3.2015,3.2047,3.2094,3.2135,3.2142,3.2157,3.2169,3.2174,3.2113,3.2106,3.2098,3.2085,3.2172,3.2172,3.2235,3.2235,3.2236]}]]